EHI
0 0 0 0 0 0 0 0 0 0 0 0 0 0 0 0 0 0 0 0 0 0 0 0 0 0 0 0 1 2 3 1 0 1 1 1 0 0 0 0 0 0 0
0 0 0 0 0 0 0 0 0 0 0 0 0 0 0 0 0 0 0 0 0 0 0 0 0 0 0 0 1 2 3 2 1 1 1 0 0 0 0 0 0 0 0
0 0 0 0 0 0 0 0 0 0 0 0 0 0 0 0 0 0 0 0 0 0 0 0 0 0 0 0 1 2 3 2 2 1 1 1 0 0 0 0 0 0 0
0 0 0 0 0 0 0 0 0 0 0 0 0 0 0 0 0 0 0 0 0 0 0 0 0 0 0 0 0 1 2 1 1 1 2 1 0 0 0 0 0 0 0
0 0 0 0 0 0 0 0 0 0 0 0 0 0 0 0 0 0 0 0 0 0 0 0 0 0 0 0 0 0 0 0 0 1 1 1 0 0 0 0 0 0 0
0 0 0 0 0 0 0 0 0 0 0 0 0 0 0 0 0 0 0 0 0 0 0 0 0 0 0 0 0 0 0 0 0 0 0 0 0 0 0 0 0 0 0
0 0 0 0 0 0 0 0 0 0 0 0 0 0 0 0 0 0 0 0 0 0 0 0 0 0 0 0 0 0 0 0 0 0 0 0 0 0 0 0 0 0 0
0 0 0 0 0 0 0 0 0 0 0 0 0 0 0 0 0 0 0 0 0 0 0 0 0 0 0 0 0 0 0 0 0 0 0 0 0 0 0 0 0 0 0
0 0 0 0 0 0 0 0 0 0 0 0 0 0 0 0 0 0 0 0 0 0 0 0 0 0 0 0 0 0 0 0 0 0 0 0 0 0 0 0 0 0 0
0 0 0 0 0 0 0 0 0 0 0 0 0 0 0 0 0 0 0 0 0 0 0 0 0 0 0 0 0 0 0 0 0 0 0 0 0 0 0 0 0 0 0
0 0 0 0 0 0 0 0 0 0 0 0 0 0 0 0 0 0 0 0 0 0 0 0 0 0 0 0 0 0 0 0 0 0 0 0 0 0 0 0 0 0 0
0 0 0 0 0 0 0 0 0 0 0 0 0 0 0 0 0 0 0 0 0 0 0 0 0 0 0 0 0 0 0 0 0 0 0 0 0 0 0 0 0 0 0
0 0 0 0 0 0 0 0 0 0 0 0 0 0 0 0 0 0 0 0 0 0 0 0 0 0 0 0 0 0 0 0 0 0 0 0 0 0 0 0 0 0 0
0 0 0 0 0 0 0 0 0 0 0 0 0 0 0 0 0 0 0 0 0 0 0 0 0 0 0 0 0 0 0 0 0 0 0 0 0 0 0 0 0 0 0
0 0 0 0 0 0 0 0 0 0 0 0 0 0 0 0 0 0 0 0 0 0 0 0 0 0 0 0 0 0 0 0 0 0 0 0 0 0 0 0 0 0 0
0 0 0 0 0 0 0 0 0 0 0 0 0 0 0 0 0 0 0 0 0 0 0 0 0 0 0 0 0 0 0 0 0 0 0 0 0 0 0 0 0 0 0
0 0 0 0 0 0 0 0 0 0 0 0 0 0 0 0 0 0 0 0 0 0 0 0 0 0 0 0 0 0 0 0 0 0 0 0 0 0 0 0 0 0 0
0 0 0 0 0 0 0 0 0 0 0 0 0 0 0 0 0 0 0 0 0 0 0 0 0 0 0 0 0 0 0 0 0 0 0 0 0 0 0 0 0 0 0
0 0 0 0 0 0 0 0 0 0 0 0 0 0 0 0 0 0 0 0 0 0 0 0 0 0 0 0 0 0 0 0 0 0 0 0 0 0 0 0 0 0 0
0 0 0 0 0 0 0 0 0 0 0 0 0 0 0 0 0 0 0 0 0 0 0 0 0 0 0 0 0 0 0 0 0 0 0 0 0 0 0 0 0 0 0
0 0 0 0 0 0 0 0 0 0 0 0 0 0 0 0 0 0 0 0 0 0 0 0 0 0 0 0 0 0 0 0 0 0 0 0 0 0 0 0 0 0 0
0 0 0 0 0 0 0 0 0 0 0 0 0 0 0 0 0 0 0 0 0 0 0 0 0 0 0 0 0 0 0 0 0 0 0 0 0 0 0 0 0 0 0
0 0 0 0 0 0 0 0 0 0 0 0 0 0 0 0 0 0 0 0 0 0 0 0 0 0 0 0 0 0 0 0 0 0 0 0 0 0 0 0 0 0 0
0 0 0 0 0 0 0 0 0 0 0 0 0 0 0 0 0 0 0 0 0 0 0 0 0 0 0 0 0 0 0 0 0 0 0 0 0 0 0 0 0 0 0
0 0 0 0 0 0 0 0 0 0 0 0 0 0 0 0 0 0 0 0 0 0 0 0 0 0 0 0 0 0 0 0 0 0 0 0 0 0 0 0 0 0 0
0 0 0 0 0 0 0 0 0 0 0 0 0 0 0 0 0 0 0 0 0 0 0 0 0 0 0 0 0 0 0 0 0 0 0 0 0 0 0 0 0 0 0
Wind_Speed
1 1 1 1 2 2 2 2 3 4 5 5 6 6 7 7 6 4 5 12 13 14 16 16 15 15 14 14 13 12 12 11 10 9 8 7 5 4 4 3 3 3 4
1 1 2 2 2 2 2 3 3 4 4 4 6 6 6 6 6 5 5 8 12 13 15 17 16 16 15 15 14 13 12 12 11 10 9 8 6 5 5 4 4 4 5
2 2 2 2 2 2 2 2 3 2 3 4 5 5 5 6 5 6 6 6 7 11 13 16 17 17 17 16 15 14 13 12 11 10 10 8 7 6 6 5 5 5 5
2 2 2 2 2 2 2 2 3 3 3 3 4 4 4 4 5 6 6 6 6 6 10 14 16 18 18 17 16 15 14 13 12 11 11 9 8 8 7 6 6 5 6
3 2 2 2 2 2 2 3 3 3 3 3 4 4 3 4 5 5 6 7 7 7 6 10 14 16 17 17 17 16 15 14 13 12 11 10 9 9 8 7 6 6 6
3 2 2 2 3 2 3 3 3 3 3 3 3 3 3 4 4 5 6 6 7 8 8 8 8 9 14 16 17 16 16 15 14 13 11 10 10 9 8 8 7 7 6
4 3 3 3 2 3 4 4 3 4 3 2 2 2 3 4 5 4 4 5 6 7 7 8 6 5 6 13 16 16 16 15 15 14 12 11 11 10 9 8 7 6 6
4 3 3 3 3 3 4 4 4 3 3 2 2 1 2 3 4 5 5 5 6 5 6 8 7 7 6 5 9 14 15 16 15 14 13 12 11 10 10 8 7 6 6
4 4 4 4 4 4 4 5 4 5 4 4 3 3 3 3 2 3 5 5 6 5 6 6 7 8 7 6 6 11 13 15 15 14 14 12 12 11 10 9 8 7 6
5 5 5 5 4 4 5 5 5 4 5 5 4 4 4 2 2 2 3 4 6 6 6 6 7 7 7 6 8 11 13 14 15 15 14 12 12 11 10 9 8 7 6
5 6 5 5 5 5 5 6 5 6 5 5 4 4 4 3 4 3 4 4 4 5 6 7 6 6 7 7 7 10 14 14 14 14 13 12 11 11 10 9 7 6 5
4 6 5 5 5 5 6 6 6 7 6 6 5 5 4 4 4 4 4 5 5 4 5 5 6 6 6 6 9 13 14 14 13 12 11 11 11 10 9 8 7 6 5
4 5 5 5 5 6 7 7 7 8 8 8 7 6 6 5 4 3 4 4 3 2 3 4 5 5 6 6 7 13 13 13 13 12 10 9 8 8 8 7 6 5 5
5 6 6 6 7 7 8 7 7 8 8 8 9 8 6 5 5 4 4 4 3 2 3 4 3 5 5 5 7 11 9 13 12 11 10 9 8 8 7 6 5 4 4
5 6 7 7 7 8 9 8 7 8 8 8 8 8 7 6 6 5 4 5 5 4 4 3 3 4 4 4 8 7 7 11 13 11 10 10 9 8 7 6 5 4 3
6 7 7 8 8 9 9 9 8 8 9 8 7 8 8 6 6 5 5 5 5 4 4 3 2 3 4 4 8 7 7 12 12 12 11 10 9 9 8 7 5 4 3
7 7 7 8 8 9 9 9 9 9 10 9 8 9 9 7 6 5 5 5 5 4 4 3 2 3 4 5 4 5 5 6 6 12 11 10 9 9 9 8 6 5 4
7 7 7 8 9 10 10 10 10 10 10 10 9 9 8 6 7 6 6 6 6 5 5 5 3 3 4 5 5 5 5 4 4 9 11 10 10 9 9 8 7 5 3
7 7 7 9 10 10 10 10 10 10 10 10 9 9 8 8 8 6 6 6 5 4 4 5 4 2 2 3 4 4 4 3 4 7 9 9 10 9 8 8 6 5 4
8 8 8 9 10 10 10 10 10 10 10 9 9 8 8 9 9 8 7 7 5 5 5 5 4 3 2 3 3 4 3 3 3 4 5 6 7 8 8 7 6 5 4
9 8 8 9 10 9 9 9 9 9 9 9 8 8 8 9 10 8 7 6 7 6 5 5 5 4 4 5 5 4 4 3 2 3 3 3 4 3 4 5 6 6 4
8 8 9 9 10 10 13 15 11 9 9 9 8 8 7 8 10 10 10 9 9 9 8 6 5 7 6 5 4 5 5 4 3 3 3 3 3 3 2 3 5 6 4
8 9 9 9 10 11 14 14 13 9 8 8 8 7 6 7 8 7 7 6 6 9 10 8 8 8 8 8 7 6 6 4 3 4 4 2 2 2 2 3 7 6 4
8 8 9 9 9 10 12 12 12 9 7 8 8 8 8 7 7 7 6 5 4 4 5 5 6 6 6 7 7 6 6 5 4 2 3 3 2 2 2 2 5 5 4
8 8 8 9 9 9 10 10 9 6 6 7 7 8 8 8 9 8 7 5 4 2 2 5 6 6 7 7 7 6 6 6 3 2 1 3 3 2 1 1 2 4 4
8 8 8 8 8 7 8 9 8 5 6 5 5 6 8 8 10 9 7 7 6 4 4 4 4 5 5 6 7 6 7 6 4 3 2 3 3 3 2 0 1 1 1
Wind_Direction
300 294 280 263 260 253 233 230 231 224 218 213 208 209 211 213 204 192 178 184 187 197 202 203 201 198 195 191 190 190 190 190 192 193 196 201 205 210 224 238 262 284 301
291 291 285 269 258 253 241 238 240 235 229 222 217 214 213 212 206 190 178 187 190 196 205 206 205 202 199 196 194 194 195 196 197 200 203 207 209 213 225 240 259 275 289
302 296 286 277 262 263 264 262 257 248 241 236 229 224 218 214 209 195 182 182 189 199 206 211 209 206 203 200 198 197 199 201 203 206 208 211 214 217 226 240 255 267 282
292 296 285 277 276 268 256 263 260 255 245 239 235 233 227 217 213 204 190 185 186 193 205 213 215 210 207 205 202 201 201 204 207 210 212 215 218 222 228 238 248 261 276
275 271 271 274 276 271 262 260 264 258 252 244 240 235 228 220 216 211 200 192 190 190 193 207 214 213 210 209 207 205 206 208 211 213 215 217 221 225 230 236 246 259 273
267 264 262 263 272 267 262 253 256 260 254 244 252 247 233 230 223 218 208 198 192 192 193 199 203 210 209 211 211 209 209 211 213 216 218 221 224 226 231 238 247 259 272
271 257 260 252 255 256 256 256 257 255 257 245 254 261 255 237 223 221 219 205 199 195 190 194 196 196 201 206 209 210 211 214 216 218 220 222 223 226 232 237 245 254 267
262 263 252 248 245 254 259 257 253 253 253 221 213 228 252 249 231 222 215 212 205 197 196 196 191 190 193 192 200 204 211 216 219 220 220 222 223 225 230 235 237 246 260
252 253 250 247 242 241 250 252 245 241 245 234 210 204 214 227 247 229 218 215 208 206 203 196 195 190 190 188 191 199 204 213 217 220 221 223 224 227 228 230 233 244 257
245 248 247 246 242 242 247 251 251 247 238 234 231 233 233 233 216 236 234 221 215 211 206 203 201 195 190 187 189 191 198 209 216 220 222 221 225 225 225 226 232 241 253
237 238 239 240 243 243 244 247 249 246 242 236 230 232 237 241 238 223 231 220 220 215 209 204 201 197 190 190 187 189 194 202 212 219 220 223 225 226 224 226 231 240 250
242 237 237 237 243 246 245 245 244 242 245 245 237 230 220 215 218 220 223 215 218 221 212 207 202 198 193 191 192 189 192 198 206 211 213 216 223 226 225 225 227 236 249
252 242 245 239 244 247 247 244 244 241 239 240 237 233 228 226 218 221 215 220 232 244 225 217 206 194 193 188 193 187 191 196 199 201 199 201 206 212 218 221 221 232 248
247 242 242 241 248 252 251 243 245 242 239 236 238 232 231 228 220 218 211 203 217 245 236 223 204 194 189 187 191 184 189 190 192 194 193 193 194 200 201 203 211 226 242
251 245 243 245 249 254 250 243 242 241 238 234 235 230 230 228 220 217 212 201 199 221 235 219 206 195 183 180 182 180 180 188 189 189 190 188 188 190 188 190 197 208 208
254 250 250 249 251 255 251 244 241 238 239 236 232 226 226 227 220 213 211 214 204 204 230 220 219 189 175 178 180 178 180 184 189 188 185 185 185 184 183 182 187 190 195
255 254 253 255 254 258 254 247 241 239 240 238 235 226 223 220 219 216 211 211 208 196 216 235 207 173 174 174 176 179 170 178 185 185 185 185 184 183 180 179 181 183 194
260 259 258 259 260 262 254 247 244 240 238 236 232 226 222 222 220 216 211 212 211 199 190 201 200 180 186 175 173 173 165 168 175 182 183 183 181 181 181 178 179 182 187
267 264 264 263 263 263 254 246 241 238 238 235 230 225 219 216 223 217 214 211 206 195 182 180 192 181 180 164 158 158 152 161 167 174 176 179 180 181 182 180 178 177 179
267 267 268 266 265 263 256 249 240 237 237 235 232 225 218 214 217 212 211 209 195 181 173 173 175 171 175 166 161 163 159 171 170 162 168 170 174 180 182 179 176 173 173
270 269 270 268 267 262 255 246 239 236 233 231 230 225 224 219 217 216 214 201 186 179 174 175 177 178 184 180 190 175 164 161 157 154 149 164 161 169 178 178 174 169 170
271 271 269 269 269 266 259 252 245 234 227 224 225 225 223 218 215 219 218 212 196 185 182 184 191 193 199 195 183 167 158 163 180 168 153 171 155 162 170 169 170 167 169
274 277 275 274 272 268 262 254 244 230 222 220 219 219 224 220 210 197 194 191 192 191 192 191 191 199 195 191 176 172 180 171 172 160 143 157 148 159 164 164 163 163 166
278 279 280 279 277 269 263 257 242 225 217 216 214 213 211 204 200 186 176 173 183 190 194 193 189 195 194 181 178 174 161 124 94 109 134 145 148 152 137 145 160 161 168
288 284 282 281 278 269 262 258 242 211 214 220 215 210 201 194 189 178 166 163 163 161 128 153 160 167 166 164 160 146 150 140 136 150 135 134 138 116 104 128 156 165 174
288 290 287 282 274 269 262 253 239 212 208 211 200 193 194 190 181 175 168 164 166 165 148 132 124 126 139 147 157 172 166 155 144 159 173 135 135 122 111 54 110 149 179